St. Paul, MN

1:48 AM CST on February 21, 2018 (GMT -0600)
Saint Paul Downtown-Holman

Weather History for KSTP - December, 2013

Change the Weather History Date:

Monday, December 23, 2013

  Actual Average Record
Temperature  
Mean Temperature 2 °F -  
Max Temperature 7 °F 23 °F 42 °F (2005)
Min Temperature -2 °F 9 °F -8 °F (2004)
Degree Days  
Heating Degree Days 62    
Moisture  
Dew Point -5 °F    
Average Humidity 72    
Maximum Humidity 79    
Minimum Humidity 66    
Precipitation  
Precipitation 0.00 in - - ()
Sea Level Pressure  
Sea Level Pressure 30.41 in    
Wind  
Wind Speed 11 mph (WNW)    
Max Wind Speed 15 mph    
Max Gust Speed -    
Visibility 6 miles    
Events Snow    
Averages and records for this station are not official NWS values.
T = Trace of Precipitation, MM = Missing Value Source: NWS Daily Summary

Daily Weather History Graph

Daily Weather History Graph

Search for Another Location

Airport or City:

Trip Planner

Search our weather history database for the weather conditions in past years. The results will help you decide how hot, cold, wet, or windy it might be!

Date:

Astronomy

Dec. 23, 2013 Rise Set
Actual Time 7:48 AM CST 4:34 PM CST
Civil Twilight 7:14 AM CST 5:08 PM CST
Nautical Twilight 6:37 AM CST 5:45 PM CST
Astronomical Twilight 6:01 AM CST 6:21 PM CST
Moon 11:00 PM CST (12/23) 10:59 AM CST (12/23)
Length of Visible Light 9h 54m
Length of Day
8h 46m
Waning Gibbous, 68% of the Moon is Illuminated
Dec 23
Waning Gibbous
Dec 25
Last Quarter
Jan 1
New
Jan 7
First Quarter
Jan 15
Full

Hourly Weather History & Observations

Time (CST) Temp. Windchill Dew Point Humidity Pressure Visibility Wind Dir Wind Speed Gust Speed Precip Events Conditions
12:53 AM 7.0 °F -7.5 °F 1.0 °F 77% 30.28 in 2.5 mi West 10.4 mph - 0.00 in Snow Light Snow
1:09 AM 6.8 °F -8.6 °F 1.4 °F 79% 30.25 in 3.0 mi West 11.5 mph - 0.00 in Snow Light Snow
1:17 AM 6.8 °F -8.6 °F 1.4 °F 79% 30.25 in 3.0 mi WNW 11.5 mph - 0.00 in Snow Light Snow
1:26 AM 6.8 °F -6.9 °F 1.4 °F 79% 30.25 in 2.5 mi West 9.2 mph - 0.00 in Snow Light Snow
1:53 AM 6.1 °F -8.7 °F -0.0 °F 76% 30.30 in 2.5 mi West 10.4 mph - 0.00 in Snow Light Snow
2:01 AM 6.8 °F -8.6 °F -0.4 °F 72% 30.26 in 3.0 mi West 11.5 mph - 0.00 in Snow Light Snow
2:14 AM 5.0 °F -12.3 °F -0.4 °F 78% 30.27 in 2.5 mi WNW 13.8 mph - 0.00 in Snow Light Snow
2:53 AM 5.0 °F -10.8 °F -0.9 °F 76% 30.32 in 2.5 mi WNW 11.5 mph - 0.00 in Snow Light Snow
3:18 AM 3.2 °F -14.6 °F -2.2 °F 78% 30.28 in 3.0 mi WNW 13.8 mph - 0.00 in Snow Light Snow
3:33 AM 3.2 °F -13.9 °F -2.2 °F 78% 30.29 in 2.5 mi WNW 12.7 mph - 0.00 in Snow Light Snow
3:53 AM 3.9 °F -13.7 °F -2.9 °F 73% 30.33 in 3.0 mi WNW 13.8 mph - 0.00 in Snow Light Snow
4:53 AM 3.0 °F -14.8 °F -2.9 °F 76% 30.34 in 3.0 mi WNW 13.8 mph - 0.00 in Snow Light Snow
5:53 AM 1.9 °F -14.7 °F -4.0 °F 76% 30.36 in 3.0 mi West 11.5 mph - 0.00 in Snow Light Snow
6:01 AM 1.4 °F -15.3 °F -4.0 °F 78% 30.32 in 2.5 mi WNW 11.5 mph - 0.00 in Snow Light Snow
6:21 AM 1.4 °F -16.1 °F -4.0 °F 78% 30.32 in 3.0 mi WNW 12.7 mph - 0.00 in Snow Light Snow
6:53 AM 1.9 °F -16.9 °F -5.1 °F 72% 30.38 in 4.0 mi NW 15.0 mph - 0.00 in   Haze
7:53 AM 1.0 °F -15.8 °F -6.0 °F 72% 30.41 in 6.0 mi WNW 11.5 mph - N/A   Haze
8:53 AM -0.0 °F -18.7 °F -7.1 °F 72% 30.44 in 5.0 mi WNW 13.8 mph - N/A   Haze
9:53 AM -0.9 °F -19.9 °F -8.0 °F 72% 30.45 in 7.0 mi WNW 13.8 mph - N/A   Mostly Cloudy
10:44 AM -0.4 °F -15.7 °F -7.6 °F 72% 30.41 in 7.0 mi NW 9.2 mph - N/A   Overcast
10:53 AM -0.0 °F -16.3 °F -7.1 °F 72% 30.46 in 9.0 mi NW 10.4 mph - N/A   Mostly Cloudy
11:01 AM 1.4 °F -15.3 °F -7.6 °F 66% 30.41 in 10.0 mi WNW 11.5 mph - N/A   Scattered Clouds
11:53 AM 1.0 °F -14.9 °F -8.0 °F 66% 30.46 in 10.0 mi WNW 10.4 mph - N/A   Mostly Cloudy
12:35 PM 1.4 °F -16.9 °F -7.6 °F 66% 30.41 in 10.0 mi WNW 13.8 mph - N/A   Mostly Cloudy
12:53 PM 1.9 °F -14.7 °F -7.1 °F 66% 30.46 in 9.0 mi NW 11.5 mph - N/A   Overcast
1:53 PM 1.9 °F -12.9 °F -6.0 °F 69% 30.47 in 6.0 mi NW 9.2 mph - N/A   Haze
2:53 PM 1.0 °F -16.6 °F -7.1 °F 69% 30.49 in 4.0 mi West 12.7 mph - N/A   Haze
3:39 PM -0.4 °F -16.7 °F -7.6 °F 72% 30.45 in 6.0 mi WNW 10.4 mph - N/A   Haze
3:53 PM -0.0 °F -17.1 °F -8.0 °F 69% 30.51 in 6.0 mi NW 11.5 mph - N/A   Haze
4:53 PM -0.0 °F -15.3 °F -8.0 °F 69% 30.52 in 10.0 mi NW 9.2 mph - N/A   Overcast
5:53 PM -0.0 °F -16.3 °F -8.0 °F 69% 30.54 in 10.0 mi NW 10.4 mph - N/A   Overcast
6:53 PM -0.0 °F -17.1 °F -8.0 °F 69% 30.56 in 7.0 mi NW 11.5 mph - 0.00 in Snow Light Snow
7:53 PM -0.0 °F -16.3 °F -8.0 °F 69% 30.56 in 6.0 mi NW 10.4 mph - 0.00 in Snow Light Snow
8:53 PM 1.0 °F -11.7 °F -8.0 °F 66% 30.56 in 8.0 mi NNW 6.9 mph - 0.00 in   Overcast
9:53 PM -0.0 °F -13.0 °F -8.0 °F 69% 30.56 in 10.0 mi NW 6.9 mph - N/A   Overcast
10:53 PM -2.0 °F -13.9 °F -9.9 °F 69% 30.55 in 10.0 mi NW 5.8 mph - N/A   Clear
11:53 PM -2.0 °F -12.2 °F -9.9 °F 69% 30.56 in 10.0 mi WNW 4.6 mph - N/A   Clear